Location: Milton Keynes
(52.0316°N, 0.7531°W)
Time: 11:03:45
(UTC+00:00)

Envisat - Pass Details

Date: 02 February 2019
Orbit: 764 x 766 km, 98.2° (Epoch: 20 February)

Event Time Altitude Azimuth Distance (km) Brightness Sun altitude
Rises 18:20:27 0° 159° (SSE) 3,223 6.1 -13.7°
Reaches altitude 10° 18:22:44 10° 158° (SSE) 2,300 5.3 -14.0°
Maximum altitude 18:27:48 78° 73° (ENE) 790 2.9 -14.8°
Drops below altitude 10° 18:32:55 10° 348° (NNW) 2,316 5.5 -15.6°
Sets 18:35:14 0° 347° (NNW) 3,247 6.3 -15.9°
